User: anonymous   Login
Location: ??????
(41.3164°N, 22.6615°E)
Time: 07:47:41
(UTC+00:00)
Language:

Cosmos 724 - Orbit

View from above orbital plane
View from above orbital plane
View from above satellite
View from above satellite

Ground track
Ground track

The orbit data is extracted from the following two-line orbital elements,

1 07727U 75025A   22023.86802816 -.00000067  00000-0  14317-4 0  9994
2 07727  65.5892 267.1025 0050479 150.2444 210.1517 13.98937051391127
Epoch (UTC): 23 January 2022 20:49:57
Eccentricity: 0.0050479
inclination: 65.5892°
perigee height: 861 km
apogee height: 934 km
right ascension of ascending node: 267.1025°
argument of perigee: 150.2444°
revolutions per day: 13.98937051
mean anomaly at epoch: 210.1517°
orbit number at epoch: 39112

The dashed part of the orbit path shows where the satellite is in the earth's shadow,  

DLR